DELTA 1 DEB, 7140

Orbit data source: Space-Track

DELTA 1 DEB, 7140 is space debris in SSO originally from a launch on Tue, 06 Nov 1973 UTC launched from the Air Force Western Test Range (AFWTR). Debris objects in space refer to the collection of defunct objects orbiting the Earth. Examples of debris include non-operational satellites, rocket bodies, and fragments generated from explosions, collisions, or faulty payload assembly.

Loading next visibility...
Identifier
7140, 1973-086DE
Orbit
SSO
Country
Flag of USUS
Related business
Manufacturer
Unknown
Mission
Spacecraft
Bus & Motor
Unknown
Mass
Unknown
Launch date (UTC)
1973-11-06 (52 years ago)
Launch vehicle
Unknown
Launch site
Air Force Western Test Range (AFWTR)
Object type
Payload
Rocket body
Debris
Shape & HBR
Unknown shape, 0.1 m
Radar Cross Section
Small (<0.1 m²)

Expand to show TLE details & history
Last TLE update: 16 hours ago

TLE from 16 hours ago
0 DELTA 1 DEB
1  7140U 73086DE  25299.91489241  .00000021  00000-0  53192-3 0  9997
2  7140 102.4019 281.3472 0021336  62.4934 355.8639 12.36310285343821
Epoch: 2025-10-26T21:57Z
TLE epoch observation values (Epoch: 2025-10-26T21:57:26.704Z)
Latitude
56.32785°
Longitude
-102.71361°
Altitude
1,514.639 km
Speed
7.121 km/s
True Right ascension
17h 28m 41s
True Declination
56° 11' 03"
Sunlit
Object was in daylight at epoch
Visualization orbit readout
Latitude
Unknown
Longitude
Unknown
Altitude
Unknown
Speed
Unknown
Apparent Right ascension
Unknown
Apparent Declination
Unknown
Sunlit
N/A
Visualization observer readout
Local Sidereal Time
08:55:44
Azimuth
Unknown
Elevation
Unknown
Doppler factor
Unknown
Orbital elements
Apogee altitude
1,536.738 km
Perigee altitude
1,503.036 km
Semi-major axis
7,898.024 km
Eccentricity
0.00213
Inclination
102.4019°
RAAN
281.3472°
Arg. of periapsis
62.4934°
True anomaly
355.84622°
Mean anomaly
355.8639°
Eccentric anomaly
355.85506°
Mean motion
3.09219 °/min
Orbital period
116.42 mins
BSTAR
0.00053192
Loading maneuver chart data...
Computing Atmospheric mass density...
Loading historical data...
Loading historical data...
Loading historical data...
Loading historical data...
Loading historical data...
Loading historical data...
Loading historical data...

Documentation

Showing up to 5 results
|